Regional Weather Roundup
Issued by NWS

Home | Current Version | Previous Version | Text Only | Print | Product List | Glossary On
Versions: 1 2 3 4 5 6 7 8 9 10 11 12 13 14 15 16 17 18 19 20 21 22 23 24 25 26 27 28 29 30 31 32 33 34 35 36 37 38 39 40 41 42 43 44 45 46 47 48 49 50
000
ASUS42 KFFC 271810
RWRGA
WEATHER ROUNDUP FOR GEORGIA
NATIONAL WEATHER SERVICE PEACHTREE CITY GA
200 PM EDT FRI MAY 27 2022

NOTE: "FAIR" INDICATES FEW OR NO CLOUDS BELOW 12,000 FEET WITH NO
SIGNIFICANT WEATHER AND/OR OBSTRUCTIONS TO VISIBILITY.

* = USE WITH CAUTION. THE STATIONS MARKED WITH AN ASTERISK MAY NOT
REPORT WEATHER SUCH AS PRECIPITATION, FOG, OR THUNDER AND ARE NOT
QUALITY CONTROLLED BY NWS.

THE REMARK "TC" DENOTES TEMPERATURE READING IN DEGREES CELSIUS.

GAZ001>058-271900-
NORTH GEORGIA

CITY           SKY/WX    TMP DP  RH WIND       PRES   REMARKS
ATLANTA        PTSUNNY   80  60  50 W14G23    29.90F
6HR MIN TEMP:  67; 6HR MAX TEMP:  80;

ATHENS         MOSUNNY   82  59  45 W8G21     29.89F
6HR MIN TEMP:  68; 6HR MAX TEMP:  82;

CHAMBLEE       PTSUNNY   77  59  53 W13G21    29.89F
6HR MIN TEMP:  66; 6HR MAX TEMP:  80;

PEACHTREE CITY MOSUNNY   81  61  50 W9G20     29.90F
6HR MIN TEMP:  68; 6HR MAX TEMP:  81;

ROME           PTSUNNY   79  57  46 W13G22    29.88F
6HR MIN TEMP:  66; 6HR MAX TEMP:  79;

WEST ATLANTA   PTSUNNY   79  60  52 W9G20     29.89F
6HR MIN TEMP:  66; 6HR MAX TEMP:  79;

GAINESVILLE    MOSUNNY   78  59  51 W13G21    29.91F
6HR MIN TEMP:  66; 6HR MAX TEMP:  78;

CARTERSVILLE   MOSUNNY   79  57  47 W12G21    29.89F


CITY           SKY/WX    TMP DP  RH WIND       PRES   REMARKS
DALTON*        PTSUNNY   77  52  41 SW8G17    29.89F
LAWRENCEVILLE* PTSUNNY   77  59  53 W16G23    29.90F
MARIETTA       PTSUNNY   77  58  50 SW14      29.88F
KENNESAW*      PTSUNNY   80  58  46 W16G24    29.90F
CANTON*          N/A     77  55  47 SW12G18   29.91F
BLAIRSVILLE*   MOSUNNY   73  58  59 SW10      29.92F
$$

GAZ059>098-102>109-271900-
CENTRAL GEORGIA

CITY           SKY/WX    TMP DP  RH WIND       PRES   REMARKS
AUGUSTA-BUSH   MOSUNNY   82  62  50 MISG      29.89F
6HR MIN TEMP:  70; 6HR MAX TEMP:  83; 6HR PCP: TRACE;

AUGUSTA-DANIEL MOSUNNY   84  61  45 S8        29.90F
6HR MIN TEMP:  71; 6HR MAX TEMP:  84;

COLUMBUS       MOSUNNY   84  61  45 W13G25    29.89F
6HR MIN TEMP:  69; 6HR MAX TEMP:  84;

MACON          MOSUNNY   86  60  41 W12       29.90F
6HR MIN TEMP:  71; 6HR MAX TEMP:  87;

ROBINS AFB     MOSUNNY   84  62  47 W6        29.90F


CITY           SKY/WX    TMP DP  RH WIND       PRES   REMARKS
LAGRANGE*      MOSUNNY   80  60  50 W12G22    29.91F
SYLVANIA*      MOSUNNY   84  64  51 SW5       29.92F
MILLEDGEVILLE* SUNNY     84  64  51 CALM      29.92F
$$

GAZ099>101-110>166-271900-
SOUTH GEORGIA

CITY           SKY/WX    TMP DP  RH WIND       PRES   REMARKS
SAVANNAH       PTSUNNY   83  69  62 S9        29.93F
6HR MIN TEMP:  74; 6HR MAX TEMP:  83; 6HR PCP: TRACE;

VALDOSTA       MOSUNNY   89  67  47 VRB3      29.94F HX  92
6HR MIN TEMP:  71; 6HR MAX TEMP:  89; 6HR PCP:  0.01;

ALMA           MOSUNNY   85  63  47 SW7       29.92F
6HR MIN TEMP:  71; 6HR MAX TEMP:  85;

ST SIMONS      LGT RAIN  76  74  93 VRB6      29.96F FOG
6HR MIN TEMP:  74; 6HR MAX TEMP:  85; 6HR PCP:  0.64;

FT STEWART     PTSUNNY   82  71  69 S7        29.90F
ALBANY         MOSUNNY   88  62  41 SW8       29.94F
HUNTER AFB     PTSUNNY   82  77  83 SW8       29.91F HX  90
BRUNSWICK      CLOUDY    75  73  95 S8        29.95F


CITY           SKY/WX    TMP DP  RH WIND       PRES   REMARKS
BAINBRIDGE*    SUNNY     84  65  52 W10       29.95F
MOULTRIE*      SUNNY     82  63  51 NW7       29.95F
VIDALIA*       MOSUNNY   82  63  51 SW5       29.92F
WAYCROSS*      CLOUDY    84  70  61 W8        29.93F
DOUGLAS*       MOSUNNY   85  63  48 SW10      29.94F
$$



USA.gov is the U.S. government's official web portal to all federal, state and local government web resources and services.